KB1KVS Weather Reports


Display with metric or nautical units.
time (UTC)temp
F
wind
direction
speed
MPH
gust
MPH
rain 1hr
in
rain 24hr
in
rain mn
in
humidity
%
barometer
mb
20210517131519 71 45 4.0 7.0 0.00 0.00 0.00 48
20210517130519 70 45 4.0 7.0 0.00 0.00 0.00 50
20210517125518 69 0 3.0 9.0 0.00 0.00 0.00 50
20210517124518 68 0 4.0 7.0 0.00 0.00 0.00 52
20210517123518 66 45 3.0 6.0 0.00 0.00 0.00 56
20210517122518 65 338 4.0 9.0 0.00 0.00 0.00 59
20210517121519 64 0 5.0 9.0 0.00 0.00 0.00 59
20210517120518 63 45 3.0 6.0 0.00 0.00 0.00 62
20210517115518 62 0 4.0 8.0 0.00 0.00 0.00 63
20210517114519 61 338 3.0 5.0 0.00 0.00 0.00 67
20210517113518 59 338 4.0 7.0 0.00 0.00 0.00 70
20210517112518 58 338 5.0 8.0 0.00 0.00 0.00 72
20210517111519 57 0 4.0 8.0 0.00 0.00 0.00 75
20210517110518 56 338 4.0 7.0 0.00 0.00 0.00 77
20210517105518 55 0 4.0 8.0 0.00 0.00 0.00 78
20210517104518 55 338 3.0 6.0 0.00 0.00 0.00 79
20210517103518 54 338 4.0 7.0 0.00 0.00 0.00 80
20210517102518 54 338 4.0 6.0 0.00 0.00 0.00 80
20210517101519 54 338 3.0 5.0 0.00 0.00 0.00 81
20210517100518 53 338 3.0 6.0 0.00 0.00 0.00 81
20210517095518 53 338 3.0 5.0 0.00 0.00 0.00 82
20210517094518 53 338 2.0 4.0 0.00 0.00 0.00 82
20210517093518 53 0 2.0 5.0 0.00 0.00 0.00 82
20210517092518 53 338 3.0 4.0 0.00 0.00 0.00 82
20210517091518 53 338 3.0 5.0 0.00 0.00 0.00 82
20210517090518 53 315 2.0 4.0 0.00 0.00 0.00 82
20210517085520 53 0 4.0 5.0 0.00 0.00 0.00 82
20210517084520 53 338 3.0 4.0 0.00 0.00 0.00 81
20210517083520 53 315 2.0 3.0 0.00 0.00 0.00 80
20210517082520 54 45 1.0 2.0 0.00 0.00 0.00 79
20210517081520 54 338 1.0 2.0 0.00 0.00 0.00 79
20210517080521 54 338 1.0 2.0 0.00 0.00 0.00 78
20210517075520 55 338 2.0 3.0 0.00 0.00 0.00 77
20210517074520 55 0 1.0 4.0 0.00 0.00 0.00 77
20210517073521 55 0.0 2.0 0.00 0.00 0.00 75
20210517072520 55 338 2.0 3.0 0.00 0.00 0.00 76
20210517071520 55 113 4.0 7.0 0.00 0.00 0.00 76
20210517070521 56 113 1.0 2.0 0.00 0.00 0.00 73
20210517065520 57 0.0 2.0 0.00 0.00 0.00 72
20210517064520 57 0.0 1.0 0.00 0.00 0.00 71
20210517063521 58 338 1.0 3.0 0.00 0.00 0.00 68
20210517062520 58 338 3.0 5.0 0.00 0.00 0.00 68
20210517061520 58 0 3.0 5.0 0.00 0.00 0.00 68
20210517060520 58 0 1.0 2.0 0.00 0.00 0.00 67
20210517055520 58 338 2.0 4.0 0.00 0.00 0.00 67
20210517054520 58 0 3.0 4.0 0.00 0.00 0.00 67
20210517053520 59 0 1.0 2.0 0.00 0.00 0.00 67
20210517052520 59 158 1.0 2.0 0.00 0.00 0.00 68
20210517051520 59 0.0 2.0 0.00 0.00 0.00 64
20210517050520 60 338 2.0 5.0 0.00 0.00 0.00 64
20210517045520 60 315 3.0 7.0 0.00 0.00 0.00 64
20210517044520 60 338 4.0 7.0 0.00 0.00 0.00 61
20210517043520 61 338 5.0 9.0 0.00 0.00 0.00 61
20210517042519 61 0 6.0 11.0 0.00 0.00 0.00 61
20210517041520 60 338 6.0 9.0 0.00 0.00 0.00 61
20210517040520 60 0 5.0 8.0 0.00 0.00 0.00 61
20210517035519 60 0 4.0 8.0 0.00 0.00 0.00 61
20210517034520 60 338 3.0 4.0 0.00 0.00 0.00 60
20210517033520 60 338 4.0 7.0 0.00 0.00 0.00 60
20210517032520 60 338 3.0 5.0 0.00 0.00 0.00 61
20210517031520 60 338 2.0 4.0 0.00 0.00 0.00 62
20210517030520 60 0 2.0 3.0 0.00 0.00 0.00 63
20210517025520 60 0 1.0 3.0 0.00 0.00 0.00 64
20210517024519 60 0 2.0 3.0 0.00 0.00 0.00 63
20210517023520 60 338 2.0 3.0 0.00 0.00 0.00 63
20210517022520 60 338 1.0 2.0 0.00 0.00 0.00 65
20210517021519 60 158 1.0 3.0 0.00 0.00 0.00 66
20210517020520 61 0 1.0 2.0 0.00 0.00 0.00 64
20210517015519 61 293 1.0 3.0 0.00 0.00 0.00 63
20210517014519 61 23 1.0 3.0 0.00 0.00 0.00 64
20210517013520 61 113 1.0 2.0 0.00 0.00 0.00 64
20210517012519 62 135 1.0 3.0 0.00 0.00 0.00 62
20210517011519 64 0 1.0 2.0 0.00 0.00 0.00 53
20210517010520 64 338 1.0 3.0 0.00 0.00 0.00 53
20210517005519 64 315 1.0 3.0 0.00 0.00 0.00 54
20210517004519 64 270 5.0 9.0 0.00 0.00 0.00 53
20210517003519 64 270 4.0 9.0 0.00 0.00 0.00 54
20210517002519 64 270 6.0 11.0 0.00 0.00 0.00 55
20210517001519 64 270 3.0 6.0 0.00 0.00 0.00 57
20210517000520 63 248 4.0 6.0 0.00 0.00 0.00 58
20210516235520 63 248 1.0 2.0 0.00 0.00 0.00 59
20210516234520 63 45 1.0 2.0 0.00 0.00 0.00 60
20210516233520 64 113 1.0 2.0 0.00 0.00 0.00 59
20210516232520 64 23 1.0 2.0 0.00 0.00 0.00 56
20210516231519 64 158 2.0 5.0 0.00 0.00 0.00 57
20210516230520 64 203 2.0 4.0 0.00 0.00 0.00 56
20210516225519 64 158 7.0 13.0 0.00 0.00 0.00 58
20210516224519 64 158 10.0 13.0 0.00 0.00 0.00 58
20210516223520 66 45 4.0 9.0 0.00 0.00 0.00 54
20210516222520 66 45 3.0 9.0 0.00 0.00 0.00 56
20210516221520 66 45 2.0 4.0 0.00 0.00 0.00 54
20210516220520 66 270 5.0 8.0 0.00 0.00 0.00 52
20210516215520 66 225 10.0 16.0 0.00 0.00 0.00 51
20210516214519 66 225 16.0 28.0 0.00 0.00 0.00 48
20210516213519 67 225 16.0 22.0 0.00 0.00 0.00 49
20210516212520 67 225 17.0 22.0 0.00 0.00 0.00 50
20210516211519 67 225 15.0 27.0 0.00 0.00 0.00 51
20210516210519 66 225 19.0 26.0 0.00 0.00 0.00 52
20210516205519 66 225 12.0 18.0 0.00 0.00 0.00 53
20210516204519 66 225 9.0 19.0 0.00 0.00 0.00 51
20210516203519 67 203 11.0 22.0 0.00 0.00 0.00 47
20210516202520 68 225 12.0 20.0 0.00 0.00 0.00 45
20210516201519 68 225 14.0 27.0 0.00 0.00 0.00 44
20210516200519 68 158 12.0 23.0 0.00 0.00 0.00 44
20210516195519 67 203 7.0 13.0 0.00 0.00 0.00 47
20210516194519 66 158 6.0 13.0 0.00 0.00 0.00 50
20210516193520 65 158 12.0 17.0 0.00 0.00 0.00 56
20210516192519 63 158 15.0 21.0 0.00 0.00 0.00 59
20210516191519 61 158 14.0 18.0 0.00 0.00 0.00 66
20210516190519 61 158 16.0 19.0 0.00 0.00 0.00 64
20210516185519 61 135 10.0 15.0 0.00 0.00 0.00 67
20210516184519 62 158 15.0 18.0 0.00 0.00 0.00 65
20210516183519 64 135 13.0 19.0 0.00 0.00 0.00 58
20210516182519 66 135 11.0 17.0 0.00 0.00 0.00 48
20210516181519 67 135 8.0 10.0 0.00 0.00 0.00 43
20210516180519 68 135 7.0 12.0 0.00 0.00 0.00 44
20210516175519 68 113 6.0 10.0 0.00 0.00 0.00 47
20210516174519 67 113 5.0 10.0 0.00 0.00 0.00 46
20210516173520 68 0 5.0 15.0 0.00 0.00 0.00 42
20210516172519 70 338 7.0 20.0 0.00 0.00 0.00 45
20210516171519 71 23 6.0 17.0 0.00 0.00 0.00 32
20210516170519 70 158 10.0 12.0 0.00 0.00 0.00 40
20210516165519 73 158 9.0 11.0 0.00 0.00 0.00 37
20210516164519 75 158 6.0 10.0 0.00 0.00 0.00 36
20210516163520 78 158 5.0 10.0 0.00 0.00 0.00 28
20210516162519 82 225 5.0 8.0 0.00 0.00 0.00 23
20210516161519 81 293 5.0 14.0 0.00 0.00 0.00 23
20210516160519 80 293 3.0 6.0 0.00 0.00 0.00 25
20210516155519 79 23 4.0 10.0 0.00 0.00 0.00 25
20210516154519 78 338 5.0 11.0 0.00 0.00 0.00 27
20210516153519 77 338 5.0 11.0 0.00 0.00 0.00 27
20210516152519 76 0 3.0 10.0 0.00 0.00 0.00 27
20210516151520 76 23 3.0 7.0 0.00 0.00 0.00 27
20210516150519 75 0 5.0 11.0 0.00 0.00 0.00 27
20210516145519 75 0 4.0 9.0 0.00 0.00 0.00 30
20210516144519 75 338 7.0 13.0 0.00 0.00 0.00 29
20210516143519 76 338 3.0 6.0 0.00 0.00 0.00 31
20210516142519 76 338 5.0 13.0 0.00 0.00 0.00 30
20210516141519 75 338 3.0 6.0 0.00 0.00 0.00 34
20210516140519 74 338 4.0 7.0 0.00 0.00 0.00 35
20210516135519 73 0 3.0 6.0 0.00 0.00 0.00 38
20210516134519 71 338 3.0 7.0 0.00 0.00 0.00 40
20210516133519 70 45 2.0 5.0 0.00 0.00 0.00 42
20210516132519 69 338 5.0 9.0 0.00 0.00 0.00 41